EW4405 Weather Reports


Display with metric or nautical units.
time (UTC)temp
F
wind
direction
speed
MPH
gust
MPH
rain 1hr
in
rain 24hr
in
rain mn
in
humidity
%
barometer
mb
20260510054936 76 183 0.0 3.0 0.00 0.00 0.00 83 1010.8
20260510054436 76 182 1.0 4.0 0.00 0.00 0.00 83 1010.9
20260510054155 76 185 1.0 4.0 0.00 0.00 0.00 84 1010.8
20260510053434 76 182 2.0 5.0 0.00 0.00 0.00 84 1010.7
20260510053154 77 182 1.0 5.0 0.00 0.00 0.00 84 1010.8
20260510052436 77 197 1.0 5.0 0.00 0.00 0.00 84 1010.8
20260510051935 77 186 2.0 6.0 0.00 0.00 0.00 83 1010.9
20260510051433 77 179 1.0 6.0 0.00 0.00 0.00 83 1011.0
20260510050934 77 183 1.0 4.0 0.00 0.00 0.00 83 1011.0
20260510050433 77 176 0.0 4.0 0.00 0.00 0.00 83 1011.2
20260510045930 78 175 0.0 4.0 0.00 0.00 0.00 82 1011.3
20260510045429 78 182 0.0 2.0 0.00 0.00 0.00 82 1011.4
20260510044924 78 182 0.0 2.0 0.00 0.00 0.00 82 1011.5
20260510044425 78 182 0.0 1.0 0.00 0.00 0.00 81 1011.5
20260510043924 78 182 0.0 1.0 0.00 0.00 0.00 81 1011.3
20260510043421 78 182 0.0 1.0 0.00 0.00 0.00 81 1011.3
20260510042920 78 182 0.0 3.0 0.00 0.00 0.00 80 1011.3
20260510042419 78 182 1.0 4.0 0.00 0.00 0.00 79 1011.2
20260510041918 78 199 0.0 4.0 0.00 0.00 0.00 79 1011.1
20260510041417 78 166 0.0 4.0 0.00 0.00 0.00 78 1011.1
20260510040917 79 165 0.0 4.0 0.00 0.00 0.00 78 1011.1
20260510040418 79 161 0.0 4.0 0.00 0.00 0.00 77 1011.1
20260510035919 79 121 0.0 1.0 0.00 0.00 0.00 76 1011.3
20260510035416 79 122 0.0 2.0 0.00 0.00 0.00 75 1011.2
20260510034919 79 122 0.0 2.0 0.00 0.00 0.00 75 1011.1
20260510034642 79 122 0.0 3.0 0.00 0.00 0.00 74 1011.2
20260510034150 79 123 0.0 3.0 0.00 0.00 0.00 74 1011.2
20260510033418 80 90 0.0 2.0 0.00 0.00 0.00 73 1011.3
20260510032919 80 80 0.0 2.0 0.00 0.00 0.00 73 1011.4
20260510032418 80 76 0.0 2.0 0.00 0.00 0.00 72 1011.3
20260510031913 80 76 1.0 3.0 0.00 0.00 0.00 72 1011.4
20260510031412 80 72 0.0 5.0 0.00 0.00 0.00 71 1011.4
20260510030912 80 78 1.0 5.0 0.00 0.00 0.00 70 1011.2
20260510030411 80 148 1.0 3.0 0.00 0.00 0.00 69 1011.2
20260510025911 80 165 0.0 3.0 0.00 0.00 0.00 68 1011.1
20260510025411 80 193 0.0 3.0 0.00 0.00 0.00 68 1010.9
20260510024911 80 202 0.0 3.0 0.00 0.00 0.00 67 1010.7
20260510024412 80 188 0.0 3.0 0.00 0.00 0.00 66 1010.5
20260510024127 81 187 1.0 3.0 0.00 0.00 0.00 66 1010.4
20260510023409 81 207 1.0 3.0 0.00 0.00 0.00 65 1010.2
20260510022909 81 180 1.0 5.0 0.00 0.00 0.00 65 1010.1
20260510022410 81 177 2.0 5.0 0.00 0.00 0.00 64 1009.9
20260510021910 81 203 1.0 5.0 0.00 0.00 0.00 64 1009.8
20260510021409 81 176 0.0 5.0 0.00 0.00 0.00 64 1009.8
20260510020908 81 180 1.0 4.0 0.00 0.00 0.00 63 1009.7
20260510020409 81 180 2.0 5.0 0.00 0.00 0.00 63 1009.4
20260510015911 81 157 2.0 5.0 0.00 0.00 0.00 63 1009.0
20260510015408 81 211 0.0 3.0 0.00 0.00 0.00 63 1009.0
20260510014908 81 205 0.0 3.0 0.00 0.00 0.00 63 1009.1
20260510014631 81 205 0.0 1.0 0.00 0.00 0.00 63 1009.1
20260510013851 81 205 0.0 1.0 0.00 0.00 0.00 63 1008.8
20260510013345 81 205 0.0 3.0 0.00 0.00 0.00 63 1008.7
20260510012835 81 205 1.0 4.0 0.00 0.00 0.00 63 1008.7
20260510012329 81 198 1.0 4.0 0.00 0.00 0.00 62 1008.6
20260510011824 81 244 0.0 0.0 0.00 0.00 0.00 63 1008.5
20260510011314 81 244 0.0 0.0 0.00 0.00 0.00 63 1008.4
20260510010808 81 244 0.0 0.0 0.00 0.00 0.00 62 1008.3
20260510010519 82 244 1.0 3.0 0.00 0.00 0.00 61 1007.8
20260510005752 82 244 2.0 3.0 0.00 0.00 0.00 60 1007.8
20260510005245 82 245 2.0 5.0 0.00 0.00 0.00 60 1007.6
20260510005002 83 254 2.0 5.0 0.00 0.00 0.00 59 1007.6
20260510004230 83 296 1.0 5.0 0.00 0.00 0.00 58 1007.8
20260510003723 85 299 1.0 6.0 0.00 0.00 0.00 56 1008.1
20260510003218 86 305 1.0 6.0 0.00 0.00 0.00 55 1008.3
20260510002708 87 198 0.0 3.0 0.00 0.00 0.00 59 1008.0
20260510002201 87 198 0.0 3.0 0.00 0.00 0.00 59 1007.8
20260510001655 87 198 0.0 3.0 0.00 0.00 0.00 58 1007.8
20260510001145 87 198 0.0 2.0 0.00 0.00 0.00 57 1007.8
20260510000900 87 198 0.0 2.0 0.00 0.00 0.00 57 1007.7
20260510000359 87 198 1.0 4.0 0.00 0.00 0.00 56 1007.9
20260509235623 87 198 1.0 4.0 0.00 0.00 0.00 56 1007.8
20260509235118 88 203 0.0 3.0 0.00 0.00 0.00 56 1007.3
20260509234611 88 206 1.0 5.0 0.00 0.00 0.00 55 1007.4
20260509234324 88 219 2.0 7.0 0.00 0.00 0.00 56 1007.4
20260509233555 88 204 2.0 7.0 0.00 0.00 0.00 55 1007.3
20260509233049 89 173 2.0 5.0 0.00 0.00 0.00 55 1007.3
20260509232539 89 175 2.0 5.0 0.00 0.00 0.00 54 1007.4
20260509232302 89 188 2.0 5.0 0.00 0.00 0.00 54 1007.4
20260509232019 90 169 2.0 5.0 0.00 0.00 0.00 53 1007.4
20260509231018 90 198 2.0 7.0 0.00 0.00 0.00 52 1007.6
20260509230512 91 198 2.0 7.0 0.00 0.00 0.00 51 1007.5
20260509230006 92 174 2.0 6.0 0.00 0.00 0.00 49 1007.3
20260509225721 93 180 2.0 6.0 0.00 0.00 0.00 49 1007.2
20260509224949 94 184 2.0 7.0 0.00 0.00 0.00 48 1007.2
20260509224443 94 171 1.0 7.0 0.00 0.00 0.00 49 1007.1
20260509223933 94 163 2.0 6.0 0.00 0.00 0.00 50 1007.2
20260509223428 93 172 3.0 7.0 0.00 0.00 0.00 51 1007.1
20260509222921 93 169 3.0 7.0 0.00 0.00 0.00 49 1007.0
20260509222412 94 209 3.0 6.0 0.00 0.00 0.00 50 1007.0
20260509222134 94 176 3.0 5.0 0.00 0.00 0.00 47 1007.1
20260509221359 94 205 2.0 6.0 0.00 0.00 0.00 47 1007.0
20260509220849 94 201 2.0 6.0 0.00 0.00 0.00 47 1007.0
20260509220343 95 164 2.0 6.0 0.00 0.00 0.00 47 1007.0
20260509215838 96 179 2.0 6.0 0.00 0.00 0.00 48 1007.0
20260509215327 96 209 2.0 6.0 0.00 0.00 0.00 46 1007.0
20260509215318 96 206 2.0 5.0 0.00 0.00 0.00 45 1007.0
20260509214315 96 176 2.0 5.0 0.00 0.00 0.00 46 1007.0
20260509213806 97 174 2.0 5.0 0.00 0.00 0.00 46 1007.0
20260509213300 98 209 1.0 4.0 0.00 0.00 0.00 45 1007.0
20260509212753 98 233 0.0 2.0 0.00 0.00 0.00 46 1007.0
20260509212245 98 232 0.0 3.0 0.00 0.00 0.00 45 1007.0
20260509211738 97 232 1.0 4.0 0.00 0.00 0.00 46 1006.9
20260509211231 97 234 1.0 4.0 0.00 0.00 0.00 47 1007.0
20260509210722 97 288 0.0 3.0 0.00 0.00 0.00 48 1007.1
20260509210432 96 286 1.0 4.0 0.00 0.00 0.00 49 1007.2
20260509205710 96 285 1.0 4.0 0.00 0.00 0.00 49 1007.2
20260509205202 96 45 1.0 3.0 0.00 0.00 0.00 49 1007.2
20260509204702 96 43 1.0 3.0 0.00 0.00 0.00 49 1007.3
20260509204202 96 41 2.0 4.0 0.00 0.00 0.00 49 1007.3
20260509203702 95 45 1.0 4.0 0.00 0.00 0.00 49 1007.4
20260509203203 95 336 1.0 4.0 0.00 0.00 0.00 50 1007.5
20260509202703 95 0 1.0 3.0 0.00 0.00 0.00 49 1007.6
20260509202202 95 245 1.0 3.0 0.00 0.00 0.00 51 1007.6
20260509201702 94 251 1.0 3.0 0.00 0.00 0.00 52 1007.7
20260509201201 94 247 1.0 3.0 0.00 0.00 0.00 53 1007.8
20260509200703 94 294 1.0 6.0 0.00 0.00 0.00 53 1007.8
20260509200648 93 294 2.0 6.0 0.00 0.00 0.00 53 1007.9
20260509195918 94 46 1.0 3.0 0.00 0.00 0.00 54 1008.0
20260509195434 93 49 1.0 3.0 0.00 0.00 0.00 54 1007.9
20260509194653 93 55 1.0 2.0 0.00 0.00 0.00 56 1008.0
20260509194153 92 54 1.0 4.0 0.00 0.00 0.00 55 1007.9
20260509193653 92 55 1.0 4.0 0.00 0.00 0.00 55 1008.0
20260509193151 92 252 1.0 2.0 0.00 0.00 0.00 54 1008.1
20260509192649 92 252 2.0 4.0 0.00 0.00 0.00 56 1008.3
20260509192417 91 253 2.0 4.0 0.00 0.00 0.00 54 1008.3
20260509191651 91 300 1.0 5.0 0.00 0.00 0.00 56 1008.3
20260509191148 91 301 1.0 5.0 0.00 0.00 0.00 56 1008.3
20260509190645 91 323 1.0 5.0 0.00 0.00 0.00 56 1008.1
20260509190145 91 322 1.0 5.0 0.00 0.00 0.00 54 1008.1
20260509185645 91 31 1.0 3.0 0.00 0.00 0.00 56 1008.1
20260509185145 91 32 1.0 4.0 0.00 0.00 0.00 56 1008.1
20260509184645 91 315 1.0 4.0 0.00 0.00 0.00 58 1008.3
20260509184146 90 0 1.0 3.0 0.00 0.00 0.00 58 1008.4
20260509183646 90 331 1.0 2.0 0.00 0.00 0.00 58 1008.6
20260509183407 89 334 0.0 2.0 0.00 0.00 0.00 62 1008.7
20260509182646 89 335 0.0 3.0 0.00 0.00 0.00 61 1008.7
20260509182145 89 335 1.0 3.0 0.00 0.00 0.00 63 1008.9
20260509181647 88 221 1.0 4.0 0.00 0.00 0.00 66 1008.9
20260509181145 88 196 1.0 4.0 0.00 0.00 0.00 65 1009.0
20260509180907 87 191 1.0 4.0 0.00 0.00 0.00 65 1008.9
20260509180144 87 258 1.0 4.0 0.00 0.00 0.00 69 1009.1
20260509175646 86 258 1.0 4.0 0.00 0.00 0.00 68 1009.3
20260509175145 85 259 1.0 3.0 0.00 0.00 0.00 73 1009.4
20260509174646 85 261 1.0 4.0 0.00 0.00 0.00 73 1009.7
20260509174144 85 263 1.0 4.0 0.00 0.00 0.00 73 1009.8
20260509173646 85 267 1.0 4.0 0.00 0.00 0.00 72 1009.9
20260509173143 85 265 1.0 4.0 0.00 0.00 0.00 72 1010.0
20260509172646 85 260 0.0 5.0 0.00 0.00 0.00 73 1010.2
20260509172144 84 261 0.0 5.0 0.00 0.00 0.00 75 1010.2
20260509171645 83 198 1.0 3.0 0.00 0.00 0.00 76 1010.2
20260509171144 82 198 0.0 3.0 0.00 0.00 0.00 77 1010.2
20260509170646 82 194 0.0 1.0 0.00 0.00 0.00 79 1010.2
20260509170142 82 194 0.0 2.0 0.00 0.00 0.00 80 1010.1
20260509165642 81 194 0.0 2.0 0.00 0.00 0.00 79 1010.3
20260509165141 81 194 0.0 2.0 0.00 0.00 0.00 79 1010.4
20260509164641 81 194 0.0 2.0 0.00 0.00 0.00 79 1010.4
20260509164140 81 194 0.0 3.0 0.00 0.00 0.00 79 1010.5
20260509163642 81 194 1.0 3.0 0.00 0.00 0.00 79 1010.4
20260509163131 81 190 0.0 3.0 0.00 0.00 0.00 79 1010.3
20260509162625 81 182 0.0 2.0 0.00 0.00 0.00 79 1010.2
20260509162120 81 182 0.0 2.0 0.00 0.00 0.00 79 1010.2
20260509161608 81 183 1.0 3.0 0.00 0.00 0.00 80 1010.2
20260509161103 81 184 1.0 3.0 0.00 0.00 0.00 80 1010.1
20260509160557 80 210 0.0 2.0 0.00 0.00 0.00 81 1010.0
20260509160048 80 210 0.0 0.0 0.00 0.00 0.00 81 1010.1
20260509155540 80 210 0.0 0.0 0.00 0.01 0.00 81 1010.3
20260509155032 80 210 0.0 0.0 0.00 0.01 0.00 81 1010.3
20260509154522 80 210 0.0 2.0 0.00 0.01 0.00 81 1009.9
20260509154017 79 210 1.0 2.0 0.00 0.02 0.00 82 1009.9
20260509153511 79 211 0.0 2.0 0.00 0.03 0.00 82 1010.0
20260509153001 79 214 0.0 1.0 0.00 0.04 0.00 83 1009.9
20260509152455 78 213 0.0 1.0 0.00 0.05 0.00 84 1010.0
20260509151949 78 213 0.0 2.0 0.00 0.05 0.00 84 1009.9
20260509151438 78 213 0.0 2.0 0.00 0.05 0.00 84 1009.7
20260509150934 78 213 0.0 1.0 0.00 0.05 0.00 85 1009.7
20260509150426 78 213 0.0 1.0 0.00 0.05 0.00 85 1009.7
20260509145918 77 213 0.0 2.0 0.00 0.05 0.00 86 1010.0
20260509145411 77 213 0.0 3.0 0.00 0.05 0.00 86 1009.8
20260509144905 77 213 0.0 4.0 0.00 0.05 0.00 87 1009.7
20260509144619 77 213 0.0 4.0 0.00 0.05 0.00 87 1009.8
20260509143849 77 216 0.0 3.0 0.00 0.05 0.00 87 1009.6
20260509143610 76 217 0.0 1.0 0.00 0.05 0.00 88 1009.4
20260509142832 76 217 0.0 2.0 0.00 0.05 0.00 88 1009.6
20260509142328 76 217 0.0 2.0 0.00 0.05 0.00 88 1009.3
20260509141820 76 217 0.0 2.0 0.00 0.05 0.00 88 1009.3
20260509141310 76 218 0.0 2.0 0.00 0.05 0.00 88 1009.0
20260509140804 76 218 0.0 2.0 0.00 0.05 0.00 88 1009.1
20260509140258 76 219 0.0 0.0 0.00 0.05 0.00 89 1009.1
20260509140020 76 219 0.0 2.0 0.00 0.05 0.00 89 1009.2
20260509135243 76 219 0.0 2.0 0.00 0.05 0.00 89 1009.3
20260509134736 76 198 0.0 0.0 0.00 0.05 0.00 89 1009.3
20260509134237 76 208 0.0 1.0 0.00 0.06 0.00 90 1009.7
20260509133734 76 208 0.0 2.0 0.00 0.07 0.00 90 1009.8
20260509133232 76 208 0.0 2.0 0.00 0.08 0.00 90 1010.1
20260509132729 76 207 0.0 3.0 0.00 0.11 0.00 90 1010.0
20260509132228 76 207 1.0 3.0 0.00 0.11 0.00 89 1010.2
20260509131727 75 208 1.0 3.0 0.00 0.11 0.00 89 1010.5
20260509131228 76 204 1.0 3.0 0.00 0.11 0.00 90 1010.6
20260509130726 76 174 1.0 2.0 0.00 0.11 0.00 90 1010.5
20260509130227 76 171 1.0 3.0 0.00 0.11 0.00 90 1010.1
20260509125728 75 171 0.0 3.0 0.00 0.11 0.00 90 1009.9
20260509125224 75 171 0.0 1.0 0.00 0.11 0.00 90 1010.0
20260509124721 75 171 0.0 1.0 0.00 0.11 0.00 90 1010.2
20260509124223 75 171 0.0 2.0 0.00 0.11 0.00 90 1010.1
20260509123723 75 171 0.0 2.0 0.00 0.11 0.00 90 1010.1
20260509123444 75 171 0.0 1.0 0.00 0.11 0.00 89 1010.0
20260509122719 75 171 0.0 0.0 0.00 0.11 0.00 89 1010.1
20260509122213 75 171 0.0 0.0 0.00 0.11 0.00 89 1010.1
20260509121707 75 171 0.0 1.0 0.00 0.11 0.00 89 1010.2
20260509121202 75 171 0.0 1.0 0.00 0.11 0.00 89 1010.2
20260509120704 75 171 0.0 0.0 0.00 0.11 0.00 89 1010.1
20260509120203 75 171 0.0 0.0 0.00 0.11 0.00 89 1009.8
20260509115702 75 171 0.0 0.0 0.00 0.11 0.00 89 1009.7
20260509115200 75 171 0.0 0.0 0.00 0.11 0.00 89 1009.6
20260509114700 75 171 0.0 0.0 0.00 0.11 0.00 89 1009.5
20260509114200 75 170 1.0 3.0 0.00 0.11 0.00 89 1009.7
20260509113700 75 170 1.0 3.0 0.00 0.11 0.00 89 1009.8
20260509113159 75 175 0.0 2.0 0.00 0.11 0.00 89 1009.8
20260509112929 75 176 0.0 0.0 0.00 0.11 0.00 89 1009.7
20260509112155 75 176 0.0 0.0 0.00 0.11 0.00 89 1009.7
20260509111921 75 176 0.0 0.0 0.00 0.11 0.00 89 1009.5
20260509111155 75 176 0.0 0.0 0.00 0.11 0.00 89 1009.5
20260509110652 75 176 0.0 0.0 0.00 0.11 0.00 89 1009.4
20260509110148 75 176 0.0 0.0 0.00 0.11 0.00 89 1009.4
20260509105918 75 176 0.0 0.0 0.00 0.11 0.00 89 1009.4
20260509105143 75 176 0.0 0.0 0.00 0.11 0.00 89 1009.2
20260509104639 75 176 0.0 0.0 0.00 0.11 0.00 88 1009.3
20260509104132 75 176 0.0 0.0 0.00 0.11 0.00 89 1009.4
20260509103628 75 176 0.0 0.0 0.00 0.11 0.00 88 1009.3
20260509103603 75 176 0.0 0.0 0.00 0.11 0.00 88 1009.2
20260509103224 75 176 0.0 0.0 0.00 0.11 0.00 88 1009.3
20260509102354 75 176 0.0 0.0 0.00 0.11 0.00 88 1009.2
20260509101626 75 176 0.0 0.0 0.00 0.11 0.00 88 1009.3
20260509101349 75 176 0.0 0.0 0.00 0.11 0.00 88 1009.3
20260509100625 75 176 0.0 0.0 0.00 0.11 0.00 88 1009.1
20260509100118 75 176 0.0 0.0 0.00 0.11 0.00 88 1009.1
20260509095620 75 176 0.0 0.0 0.00 0.11 0.00 88 1009.2
20260509095121 75 176 0.0 0.0 0.00 0.11 0.00 88 1009.0
20260509094620 74 176 0.0 0.0 0.00 0.11 0.00 88 1009.0
20260509094118 74 176 0.0 0.0 0.00 0.11 0.00 88 1008.9
20260509093619 74 176 0.0 0.0 0.00 0.11 0.00 88 1008.9
20260509093114 75 176 0.0 0.0 0.00 0.11 0.00 88 1008.8
20260509092609 74 176 0.0 0.0 0.00 0.11 0.00 88 1008.7
20260509092328 74 176 0.0 0.0 0.00 0.11 0.00 88 1008.9
20260509091611 74 176 0.0 0.0 0.00 0.11 0.00 88 1008.9
20260509091110 74 176 0.0 0.0 0.00 0.11 0.00 88 1009.0
20260509090833 75 176 0.0 0.0 0.00 0.11 0.00 88 1009.0
20260509090110 75 176 0.0 0.0 0.00 0.11 0.00 88 1009.0
20260509085838 75 176 0.0 0.0 0.00 0.11 0.00 88 1009.0
20260509085338 75 176 0.0 0.0 0.00 0.11 0.00 88 1008.9
20260509084610 75 176 0.0 0.0 0.00 0.11 0.00 88 1008.9
20260509084109 75 175 0.0 0.0 0.00 0.11 0.00 88 1008.8
20260509083611 75 175 0.0 0.0 0.00 0.11 0.00 88 1008.9
20260509083109 75 175 0.0 0.0 0.00 0.11 0.00 88 1008.7
20260509082608 75 175 0.0 1.0 0.00 0.11 0.00 88 1008.9
20260509082110 75 175 0.0 1.0 0.00 0.11 0.00 88 1009.1
20260509081610 75 175 0.0 3.0 0.00 0.11 0.00 88 1009.1
20260509081110 75 175 0.0 3.0 0.00 0.11 0.00 88 1008.9
20260509080608 75 176 0.0 3.0 0.00 0.11 0.00 87 1008.7
20260509080338 75 175 0.0 3.0 0.00 0.11 0.00 87 1008.7
20260509075608 75 175 0.0 3.0 0.00 0.11 0.00 87 1008.7
20260509075109 75 175 0.0 4.0 0.00 0.11 0.00 87 1008.8
20260509074609 75 174 0.0 4.0 0.00 0.11 0.00 87 1008.9
20260509074106 75 172 0.0 3.0 0.00 0.11 0.00 87 1009.0
20260509073605 75 175 1.0 3.0 0.00 0.11 0.00 87 1009.1
20260509073323 75 175 1.0 3.0 0.00 0.11 0.00 87 1009.3
20260509072603 75 176 1.0 4.0 0.00 0.11 0.00 87 1009.3
20260509072329 76 176 1.0 4.0 0.00 0.11 0.00 87 1009.5
20260509071558 76 175 0.0 3.0 0.00 0.11 0.00 87 1009.6
20260509071057 76 175 0.0 3.0 0.00 0.11 0.00 87 1009.7
20260509070554 76 176 0.0 0.0 0.00 0.11 0.00 87 1009.7
20260509070053 76 176 0.0 1.0 0.00 0.11 0.00 87 1009.7
20260509065551 76 176 0.0 2.0 0.00 0.11 0.00 87 1009.7
20260509065050 76 175 0.0 2.0 0.00 0.11 0.00 87 1009.7
20260509064551 76 175 1.0 4.0 0.00 0.11 0.00 87 1009.6
20260509064052 76 175 1.0 4.0 0.00 0.11 0.00 87 1009.6
20260509063553 76 165 1.0 3.0 0.00 0.11 0.00 88 1009.3
20260509063049 76 125 0.0 3.0 0.00 0.11 0.00 88 1009.2
20260509062548 76 121 0.0 3.0 0.00 0.11 0.00 88 1009.2
20260509062046 76 118 0.0 3.0 0.00 0.11 0.00 88 1009.3
20260509061545 76 117 0.0 3.0 0.00 0.11 0.00 87 1009.5
20260509061045 76 117 0.0 2.0 0.00 0.11 0.00 87 1009.7
20260509060540 75 74 0.0 2.0 0.00 0.11 0.00 87 1009.7
20260509060041 75 67 0.0 0.0 0.00 0.11 0.00 87 1009.8
20260509055535 75 67 0.0 0.0 0.00 0.11 0.00 87 1009.8
20260509055030 75 67 0.0 0.0 0.00 0.11 0.00 87 1009.8